ICEYE-X6

Last updated on Thu Oct 29 2020 00:02:02 GMT+0000 (Coordinated Universal Time)

1 46497U 20068M 20302.60707347 .00000986 00000-0 78013-4 0 9993 2 46497 97.6676 235.7973 0016140 138.5745 33.2290 15.02840179 4497
UTC large
Height (km)
Speed (km/s)
/
Latitude / Longitude
Inclination (degrees)
Orbital Period (minutes)
Azimuth
Elevation
Range (km)
Doppler Factor

Next 0 passes for location: London (51.5072 / 0.1276)

Sorry there are no passes over London.